Regional Weather Roundup
Issued by NWS

Home | Current Version | Previous Version | Graphics & Text | Print | Product List | Glossary On
Versions: 1 2 3 4 5 6 7 8 9 10 11 12 13 14 15 16 17 18 19 20 21 22 23 24 25 26 27 28 29 30 31 32 33 34 35 36 37 38 39 40 41 42 43 44 45 46 47 48 49 50
006
ASUS43 KIND 231009
RWRIN

WEATHER ROUNDUP FOR INDIANA
NATIONAL WEATHER SERVICE INDIANAPOLIS IN
600 AM EDT FRI JUN 23 2017

NOTE: "FAIR" INDICATES FEW OR NO CLOUDS BELOW 12,000 FEET WITH NO
SIGNIFICANT WEATHER AND/OR OBSTRUCTIONS TO VISIBILITY.

* - STATION DOES NOT REPORT WEATHER SUCH AS PRECIPITATION OR FOG.

+ - STATION NOT QUALITY CONTROLLED BY THE NATIONAL WEATHER SERVICE.
    USE DATA WITH CAUTION...ESPECIALLY DEWPOINT AND RELATIVE
    HUMIDITY OBSERVATIONS.

INZ001>003-010>013-019-020-231100-
NORTHWEST INDIANA

CITY           SKY/WX    TMP DP  RH WIND       PRES   REMARKS
GARY /AIRPORT/ CLOUDY    77  72  83 SW8       29.66S
KNOX *+        CLOUDY    72  72 100 SW8       29.67F
LA PORTE +     LGT RAIN  72  71  96 SW8       29.67F
MICHIGAN CITY+ CLOUDY    73  73 100 SW7       29.67S
MONTICELLO +   CLOUDY    72  71  95 SW6       29.67S
RENSSELAER +   CLOUDY    73  70  88 SW10      29.67F
VALPARAISO     CLOUDY    74  73  97 SW9       29.67F

$$

LMZ046-743>745-231100-
SOUTHERN LAKE MICHIGAN

STATION/POSITION TIME  TEMP    WIND        PRES    WAVE
                       AIR SEA DIR/SP/G            HT
                 (UTC) (F)     (DEG/KT/KT) (MB)    (FT)
BURNS HARBOR     0940   74     230/  9/ 14 1004.7S
MICHIGAN CITY    0940   74     220/ 11/ 12   N/A
5NW MICH CITY    1000   71 68  230/  8/ 12   N/A     1

$$

INZ004-005-014>016-021>024-231100-
NORTH CENTRAL INDIANA

CITY           SKY/WX    TMP DP  RH WIND       PRES   REMARKS
GOSHEN         CLOUDY    72  69  90 SW12      29.66F FOG
LOGANSPORT +   HVY RAIN  72  70  94 SW10G16   29.68F
PERU/GRISSOM   TSTM      72  72 100 SW13G20   29.67F VSB 3/4
ROCHESTER +    CLOUDY    73  73 100 SW5       29.68F FOG
SOUTH BEND     CLOUDY    72  71  97 SW8       29.66F
WARSAW +       DRIZZLE   70  70 100 SW6       29.67F

$$

INZ006>009-017-018-025>027-231100-
NORTHEAST INDIANA

CITY           SKY/WX    TMP DP  RH WIND       PRES   REMARKS
AUBURN +       DRIZZLE   70  68  94 CALM      29.69S
FORT WAYNE     TSTM      72  70  93 W9        29.68F FOG
HUNTINGTON +   TSTM      71  70  96 SW6       29.69S
KENDALLVILLE + DRIZZLE   70  70 100 SW8       29.68F

$$

INZ028-029-035-036-043>045-051>053-231100-
WEST CENTRAL INDIANA

CITY           SKY/WX    TMP DP  RH WIND       PRES   REMARKS
CRAWFORDSVL +  CLOUDY    73  73 100 SW10G16   29.71S
GREENCASTLE +  CLOUDY    73  72  94 CALM      29.73S
LAFAYETTE      CLOUDY    73  73 100 SW12G18   29.67F FOG
TERRE HAUTE    CLOUDY    76  72  87 SW13      29.71F

$$

INZ030>032-037>040-046>048-054>057-064-065-231100-
CENTRAL INDIANA

CITY           SKY/WX    TMP DP  RH WIND       PRES   REMARKS
CP ATTERBURY + CLOUDY    73  70  88 SW12      29.75S
FRANKFORT +    CLOUDY    77  74  90 SW12      29.71S
GREENWOOD *+   CLOUDY    75  71  86 SW9       29.74F
INDIANAPOLIS   CLOUDY    76  72  87 SW18G24   29.71F
-EAGLE CREEK   TSTM      75  72  90 SW7       29.71S FOG
KOKOMO +       CLOUDY    74  72  93 SW10      29.70S
MARION +       CLOUDY    73  72  94 SW13G20   29.71S
MT COMFORT *+  CLOUDY    73  72  94 SW12G17   29.73S
SHELBYVILLE    CLOUDY    76  71  85 S12       29.73F
ZIONSVILLE +   RAIN      73  71  95 SW16      29.73R

$$

INZ033-034-041-042-049-050-058-059-231100-
EAST CENTRAL INDIANA

CITY           SKY/WX    TMP DP  RH WIND       PRES   REMARKS
MUNCIE         CLOUDY    75  71  87 SW10      29.71F
RICHMOND +     CLOUDY    72  70  94 SW12G18   29.77F

$$

INZ060-061-067>069-081>083-085>088-231100-
SOUTHWEST INDIANA

CITY           SKY/WX    TMP DP  RH WIND       PRES   REMARKS
EVANSVILLE     HVY RAIN  75  72  90 S8        29.76F FOG
HUNTINGBURG *+ CLOUDY    75  73  93 S10       29.77S
WASHINGTON +   CLOUDY    74  73  94 S7        29.74F

$$

INZ062-063-066-070>080-084-089>092-231100-
SOUTH CENTRAL AND SOUTHEAST INDIANA

CITY           SKY/WX    TMP DP  RH WIND       PRES   REMARKS
BLOOMINGTON    CLOUDY    76  71  85 SW12      29.74F
MADISON *+     CLOUDY    73  72  94 S10       29.80F

$$





USA.gov is the U.S. government's official web portal to all federal, state and local government web resources and services.